CW9009 Weather Reports


Display with metric or nautical units.
time (UTC)temp
F
wind
direction
speed
MPH
gust
MPH
rain 1hr
in
rain 24hr
in
rain mn
in
humidity
%
barometer
mb
20260506113429 50 118 1.0 2.0 0.00 0.00 0.00 44 1017.2
20260506112429 51 149 2.0 3.0 0.00 0.00 0.00 43 1017.2
20260506111430 51 159 2.0 2.0 0.00 0.00 0.00 43 1017.2
20260506110430 51 55 1.0 1.0 0.00 0.00 0.00 43 1017.0
20260506105430 51 66 2.0 3.0 0.00 0.00 0.00 43 1017.0
20260506104430 52 63 3.0 3.0 0.00 0.00 0.00 43 1016.7
20260506103450 52 96 2.0 4.0 0.00 0.00 0.00 41 1016.5
20260506102430 52 53 2.0 3.0 0.00 0.00 0.00 41 1016.3
20260506101431 52 52 3.0 7.0 0.00 0.00 0.00 41 1016.1
20260506100431 52 86 4.0 5.0 0.00 0.00 0.00 41 1016.0
20260506095431 53 81 4.0 7.0 0.00 0.00 0.00 41 1015.9
20260506094431 53 131 3.0 5.0 0.00 0.00 0.00 41 1015.7
20260506093431 54 72 4.0 5.0 0.00 0.00 0.00 40 1015.7
20260506092431 54 64 4.0 4.0 0.00 0.00 0.00 40 1015.6
20260506091417 55 57 4.0 6.0 0.00 0.00 0.00 38 1015.3
20260506090417 55 90 3.0 5.0 0.00 0.00 0.00 38 1015.0
20260506085417 56 168 3.0 5.0 0.00 0.00 0.00 40 1014.9
20260506084417 56 128 6.0 8.0 0.00 0.00 0.00 41 1014.6
20260506083433 57 98 2.0 3.0 0.00 0.00 0.00 47 1014.3
20260506082432 58 108 1.0 1.0 0.00 0.00 0.00 47 1013.4
20260506081433 58 63 0.0 1.0 0.00 0.00 0.00 47 1013.2
20260506080433 59 0.0 0.0 0.00 0.00 0.00 46 1013.0
20260506073418 60 93 1.0 1.0 0.00 0.00 0.00 43 1012.1
20260506072418 60 280 0.0 1.0 0.00 0.00 0.00 41 1012.1
20260506071438 60 140 1.0 1.0 0.00 0.00 0.00 41 1012.0
20260506070419 60 0.0 0.0 0.00 0.00 0.00 41 1012.0
20260506062420 62 103 1.0 1.0 0.00 0.00 0.00 38 1011.2
20260506061419 63 278 0.0 0.0 0.00 0.00 0.00 37 1011.0
20260506060420 63 0.0 0.0 0.00 0.00 0.00 36 1010.9
20260506050421 66 0 0.0 0.0 0.00 0.00 0.00 30 1009.7
20260506044422 68 298 1.0 2.0 0.00 0.00 0.00 30 1009.4
20260506043441 68 295 2.0 2.0 0.00 0.00 0.00 28 1009.4
20260506042422 69 292 2.0 2.0 0.00 0.00 0.00 28 1009.3
20260506041422 69 310 1.0 2.0 0.00 0.00 0.00 26 1009.1
20260506040442 70 293 1.0 1.0 0.00 0.00 0.00 25 1009.0
20260506035422 70 0 0.0 0.0 0.00 0.00 0.00 24 1008.7
20260506034422 71 295 1.0 2.0 0.00 0.00 0.00 24 1008.6
20260506033423 71 0 0.0 0.0 0.00 0.00 0.00 25 1008.4
20260506032423 72 305 1.0 2.0 0.00 0.00 0.00 24 1008.2
20260506031423 73 336 1.0 2.0 0.00 0.00 0.00 24 1008.0
20260506030417 73 299 2.0 2.0 0.00 0.00 0.00 24 1007.7
20260506025417 74 313 1.0 2.0 0.00 0.00 0.00 22 1007.4
20260506024418 75 303 1.0 2.0 0.00 0.00 0.00 20 1007.3
20260506023418 76 303 1.0 2.0 0.00 0.00 0.00 20 1007.2
20260506022418 76 288 2.0 2.0 0.00 0.00 0.00 19 1007.1
20260506021418 77 306 1.0 1.0 0.00 0.00 0.00 19 1006.9
20260506020419 78 0 0.0 0.0 0.00 0.00 0.00 18 1006.7
20260506015419 79 284 2.0 4.0 0.00 0.00 0.00 18 1006.7
20260506014439 80 334 1.0 1.0 0.00 0.00 0.00 18 1006.6
20260506013419 80 6 1.0 2.0 0.00 0.00 0.00 18 1006.7
20260506012419 80 310 1.0 2.0 0.00 0.00 0.00 18 1006.6
20260506011419 80 304 2.0 2.0 0.00 0.00 0.00 18 1006.5
20260506010420 80 287 2.0 3.0 0.00 0.00 0.00 18 1006.5
20260506005420 80 278 3.0 4.0 0.00 0.00 0.00 18 1006.5
20260506004420 80 289 2.0 4.0 0.00 0.00 0.00 17 1006.5
20260506003421 80 293 2.0 4.0 0.00 0.00 0.00 17 1006.4
20260506002421 80 312 2.0 2.0 0.00 0.00 0.00 18 1006.4
20260506001421 80 269 1.0 1.0 0.00 0.00 0.00 18 1006.4
20260506000423 80 263 1.0 2.0 0.00 0.00 0.00 18 1006.5
20260505235441 80 304 3.0 3.0 0.00 0.00 0.00 18 1006.4
20260505234421 80 266 2.0 2.0 0.00 0.00 0.00 18 1006.5
20260505233421 81 267 3.0 4.0 0.00 0.00 0.00 19 1006.5
20260505232422 80 268 2.0 3.0 0.00 0.00 0.00 19 1006.5
20260505231422 80 252 2.0 3.0 0.00 0.00 0.00 19 1006.5
20260505230423 80 275 1.0 2.0 0.00 0.00 0.00 18 1006.7
20260505225423 81 289 2.0 3.0 0.00 0.00 0.00 19 1006.6
20260505224423 80 257 1.0 2.0 0.00 0.00 0.00 20 1006.7
20260505223423 80 312 2.0 4.0 0.00 0.00 0.00 22 1007.0
20260505222423 80 300 1.0 2.0 0.00 0.00 0.00 24 1007.1
20260505221424 80 282 1.0 2.0 0.00 0.00 0.00 25 1007.2
20260505220423 80 266 1.0 2.0 0.00 0.00 0.00 25 1007.5
20260505215443 79 252 2.0 2.0 0.00 0.00 0.00 25 1007.5
20260505214424 79 303 2.0 3.0 0.00 0.00 0.00 26 1007.8
20260505213426 79 271 2.0 3.0 0.00 0.00 0.00 26 1007.9
20260505212424 78 225 1.0 1.0 0.00 0.00 0.00 28 1007.9
20260505211444 78 269 2.0 3.0 0.00 0.00 0.00 28 1008.1
20260505210445 77 298 2.0 3.0 0.00 0.00 0.00 28 1008.4
20260505205425 77 262 1.0 2.0 0.00 0.00 0.00 26 1008.3
20260505204445 76 274 1.0 2.0 0.00 0.00 0.00 26 1008.3
20260505203425 76 301 1.0 2.0 0.00 0.00 0.00 28 1008.5
20260505202446 76 298 0.0 1.0 0.00 0.00 0.00 30 1008.5
20260505201426 75 253 1.0 1.0 0.00 0.00 0.00 31 1008.6
20260505200426 75 278 1.0 2.0 0.00 0.00 0.00 30 1008.7
20260505195426 75 241 1.0 2.0 0.00 0.00 0.00 31 1008.7
20260505194446 74 264 2.0 3.0 0.00 0.00 0.00 31 1009.0
20260505193447 73 273 1.0 2.0 0.00 0.00 0.00 32 1009.0
20260505192427 73 257 3.0 4.0 0.00 0.00 0.00 32 1009.2
20260505191436 73 265 3.0 3.0 0.00 0.00 0.00 34 1009.2
20260505190427 72 269 1.0 2.0 0.00 0.00 0.00 36 1009.3
20260505185427 71 245 1.0 1.0 0.00 0.00 0.00 34 1009.5
20260505184428 71 251 1.0 1.0 0.00 0.00 0.00 34 1009.6
20260505183448 70 248 2.0 3.0 0.00 0.00 0.00 37 1009.6
20260505182449 70 294 2.0 3.0 0.00 0.00 0.00 34 1009.7
20260505181428 69 306 1.0 1.0 0.00 0.00 0.00 37 1009.8
20260505180417 68 272 1.0 1.0 0.00 0.00 0.00 37 1009.9
20260505175418 68 215 1.0 2.0 0.00 0.00 0.00 37 1009.9
20260505174418 67 307 1.0 1.0 0.00 0.00 0.00 40 1009.8
20260505173438 66 277 1.0 2.0 0.00 0.00 0.00 40 1009.8
20260505172418 66 115 2.0 3.0 0.00 0.00 0.00 41 1009.8
20260505171439 65 224 1.0 1.0 0.00 0.00 0.00 40 1009.8
20260505170419 65 250 1.0 2.0 0.00 0.00 0.00 44 1009.7
20260505165419 64 241 2.0 3.0 0.00 0.00 0.00 41 1009.7
20260505164439 64 233 1.0 2.0 0.00 0.00 0.00 44 1009.8
20260505163419 63 0 0.0 0.0 0.00 0.00 0.00 44 1009.8
20260505162419 63 301 1.0 3.0 0.00 0.00 0.00 44 1009.8
20260505161419 62 284 2.0 4.0 0.00 0.00 0.00 46 1009.7
20260505160420 62 216 1.0 2.0 0.00 0.00 0.00 46 1009.6
20260505152420 58 307 0.0 1.0 0.00 0.00 0.00 62 1009.6
20260505151442 57 344 1.0 2.0 0.00 0.00 0.00 64 1009.6
20260505150440 56 64 1.0 2.0 0.00 0.00 0.00 66 1009.6
20260505140442 52 92 1.0 2.0 0.00 0.00 0.00 69 1009.2
20260505124423 52 121 2.0 4.0 0.00 0.00 0.00 65 1007.5
20260505123423 52 57 3.0 3.0 0.00 0.00 0.00 65 1007.5
20260505122423 52 84 1.0 1.0 0.00 0.00 0.00 65 1007.2
20260505121423 52 49 2.0 3.0 0.00 0.00 0.00 64 1007.1
20260505120424 53 135 1.0 2.0 0.00 0.00 0.00 64 1007.0
20260505115424 53 96 2.0 3.0 0.00 0.00 0.00 62 1006.9
20260505114424 53 72 1.0 1.0 0.00 0.00 0.00 62 1006.6